OOV-CUBE

Last updated on Tue Aug 06 2024 00:02:03 GMT+0000 (Coordinated Universal Time)

1 60240U 24128F 24218.52490822 .00004637 00000+0 42255-3 0 9998 2 60240 61.9978 69.4803 0010581 287.1436 72.8493 14.96486455 3996

Satellite not in orbit

OOV-CUBE